Regional Weather Roundup
Issued by NWS Charleston, SC

Current Version | Previous Version | Text Only | Print | Product List | Glossary Off
Versions: 1 2 3 4 5 6 7 8 9 10 11 12 13 14 15 16 17 18 19 20 21 22 23 24 25 26 27 28 29 30 31 32 33 34 35 36 37 38 39 40 41 42 43 44 45 46 47 48 49 50

000
ASUS42 KCHS 250512
RWRCHS

REGIONAL WEATHER ROUNDUP
NATIONAL WEATHER SERVICE CHARLESTON SC
100 AM EDT SAT APR 25 2015

NOTE: "FAIR" INDICATES FEW OR NO CLOUDS BELOW 12,000 FEET WITH NO
SIGNIFICANT WEATHER AND/OR OBSTRUCTIONS TO VISIBILITY.

NOT ALL STATIONS ARE QUALITY CONTROLLED BY THE NATIONAL
WEATHER SERVICE. USE DATA WITH CAUTION...ESPECIALLY
DEWPOINT OBSERVATIONS.

SCZ027-030-031-034>040-042>050-250600-
...SOUTHEAST SOUTH CAROLINA...

CITY           SKY/WX    TMP DP  RH WIND       PRES   REMARKS
N CHARLESTON   CLOUDY    58  48  69 S5        30.00F
WATERFRONT PRK   N/A     64 N/A N/A CALM        N/A
MOUNT PLEASANT FAIR      54  50  87 MISG      30.00F
PINOPOLIS      NOT AVBL
MONCKS CORNER  FAIR      55  48  76 CALM      29.99F
SUMMERVILLE    FAIR      55  50  82 CALM      30.01F
BEAUFORT MCAS  CLOUDY    65  53  65 CALM      29.99F
BEAUFORT ARPT  FAIR      63  52  67 CALM      29.98F
HILTON HEAD IS CLOUDY    64  50  59 S3        30.01R
WALTERBORO     CLOUDY    57  50  77 SE5       29.99F
ALLENDALE      FAIR      63  46  55 CALM      29.98F

...SOUTHERN MIDLANDS AND PEE DEE...

CITY           SKY/WX    TMP DP  RH WIND       PRES   REMARKS
GEORGETOWN     NOT AVBL
KINGSTREE      NOT AVBL
ORANGEBURG     CLOUDY    58  47  66 S5        29.98F
BARNWELL       FAIR      63  46  55 S6        29.98F
AIKEN          FAIR      59  43  55 S8        30.00S
MANNING        FAIR      59  37  44 S3        29.99F
COLUMBIA       MOCLDY    60  45  57 CALM      29.96F
SUMTER         CLOUDY    57  46  66 S3        29.96S
FLORENCE       CLOUDY    57  45  64 S6        29.97F
MYRTLE BEACH   MOCLDY    61  45  55 SW7       30.01F
N MYRTLE BEACH PTCLDY    58  49  72 SW3       29.98F

$$

GAZ063-065-086>088-099>101-113>116-118-119-134>141-150-250600-
...SOUTHEAST GEORGIA...

CITY           SKY/WX    TMP DP  RH WIND       PRES   REMARKS
SAVANNAH ARPT  CLOUDY    64  49  57 S3        30.00R
HUNTER AAF     CLOUDY    64  53  68 S2        29.98R
FORT STEWART   CLOUDY    62  53  71 CALM      29.97S
STATESBORO       N/A     62  51  67 SE3       29.99S
SYLVANIA       CLOUDY    61  51  70 CALM      30.00F
CLAXTON        FAIR      61  52  72 CALM      29.99F

...CSRA...CENTRAL AND FAR SOUTHEAST GEORGIA...

CITY           SKY/WX    TMP DP  RH WIND       PRES   REMARKS
THOMSON        CLOUDY    66  49  53 S3        29.99S
AUGUSTA-BUSH   CLOUDY    63  48  58 S13       29.97S
AUGUSTA-DANIEL CLOUDY    64  46  52 SE8       29.97S
SWAINSBORO     NOT AVBL
VIDALIA        CLOUDY    63  52  67 S5        29.98F
EASTMAN        FAIR      67  56  67 S7        29.99F
HAZLEHURST     FAIR      66  53  61 SE5       29.96F
ALMA           CLOUDY    64  53  67 SE6       29.98F
WAYCROSS       CLOUDY    67  57  70 CALM      29.99F
JESUP          CLOUDY    64  57  77 CALM      30.00F
BAXLEY         CLOUDY    64  54  68 S3        29.98F
BRUNSWICK      CLOUDY    64  59  82 CALM      30.01S
SAINT SIMONS   CLOUDY    68  59  73 SE6       30.01R

$$

SCZ027-028-034-036>038-045-046-048>050-GAZ119-141-250600-
...LAKE AND SUPPLEMENTAL COASTAL OBSERVATIONS...

STATION/POSITION TIME  TEMP    WIND        PRES    WAVE   SWELL
                       AIR SEA DIR/SP/G            HT/PER HT/PER/DIR
                 (UTC) (F)     (DEG/KT/KT) (MB)    (FT/S) (FT/S/D)
UPR LAKE MARION  NOT AVBL
WINYAH BAY       NOT AVBL
LAKE MURRAY      0400   64     160/  8/ 10 1014.2F
ACE BASIN NERRS  NOT AVBL
FORT PULASKI     0406   66 70  120/  3/  6 1015.9F
SAPELO ISLAND    NOT AVBL

$$

ANZ835-935-AMZ111-154-330-350-352-354-370-450-454-472-250600-
...C-MAN AND BUOY OBSERVATIONS...

STATION/POSITION TIME  TEMP    WIND        PRES    WAVE   SWELL
                       AIR SEA DIR/SP/G            HT/PER HT/PER/DIR
                 (UTC) (F)     (DEG/KT/KT) (MB)    (FT/S) (FT/S/D)
BUOY 41004       0450   68 72  180/  6/  8 1016.0S   3/10   3/10
BUOY 41008       0450   68 69  130/  8/ 10 1015.9R   3/ 8   3/ 80/ 8
FOLLY BEACH CMAN 0500   67     180/  9/ 10 1016.1F
CAPERS NEARSHORE 0408   66     180/ 10/ 12   N/A
FRIPP NEARSHORE  NOT AVBL


STATION/POSITION TIME  TEMP    WIND        PRES    WAVE   SWELL
                       AIR SEA DIR/SP/G            HT/PER HT/PER/DIR
                 (UTC) (F)     (DEG/KT/KT) (MB)    (FT/S) (FT/S/D)
5E ST. MARYS GA  0421      69                N/A     4/ 7   2/ 80/13
FRYING PAN BUOY  0450   67 71  230/ 10/ 12 1016.1F   3/ 8   3/ 70/ 8
BUOY 41025       0450   65 73  260/ 12/ 16 1014.8F   5/10   3/ 70/10
CAPE LOOKOUT NC  0400   61     250/  9/ 12 1015.4F
BUOY 41002       0450   63 70   20/  8/ 10 1017.1F   6/ 8   5/340/ 8
BUOY 41010       0420   75 78   70/ 10/ 12 1015.7F
ST AUGUSTINE FL  0500   72 68  130/ 10/ 11 1016.2S


$$



USA.gov is the U.S. government's official web portal to all federal, state and local government web resources and services.